Weather in San Pedro de Atacama

Chile     22°54′34″S   68°12′04″W
temp.,
°C
wind,
m/s
gust,
m/s
humid.,
%
clouds,
%
prec.,
mm/h
press.,
hPa
HPBL,
m
31 july, sat
sat3123:00+8ssw11270 0.0 101810
02:00+6wnw11310 0.0 101710
05:00+6se113582 0.0 101910
08:00+8ssw3435100 0.1 102288
11:00+10wnw324324 0.1 1023994
14:00+14sse533298 0.1 10171363
17:00+15s332820 0.0 10161340
20:00+10n113554 0.0 102010
1 august, sun
sun123:00+8nne11360 0.0 102210
02:00+6nw22381 0.0 102110
05:00+5se11433 0.0 102110
08:00+7nne11355 0.0 102210
11:00+14ssw21225 0.0 1020649
14:00+18se43101 0.0 10151287
17:00+19se3290 0.0 10141145
20:00+12wnw1116100 0.0 101710
2 august, mon
mon223:00+9nw112278 0.0 101910
02:00+8s0122100 0.0 101910
05:00+6e1124100 0.0 102010
08:00+8ne0121100 0.0 102210
11:00+15s1112100 0.0 1021566
14:00+19se43799 0.0 10161214
17:00+19nnw137100 0.0 10141217
20:00+13wnw3317100 0.0 101811
3 august, tue
tue323:00+10nw1122100 0.0 101910
02:00+8e0124100 0.0 101910
05:00+7ssw1125100 0.0 101910
08:00+9w1122100 0.0 102110
11:00+17se21120 0.0 1018533
14:00+21se4492 0.0 10131502
17:00+21wsw451147 0.0 10112253
20:00+15nw44250 0.0 101527
4 august, wed
wed423:00+11sw0131100 0.0 101710
02:00+10nnw1133100 0.0 101710
05:00+9nw0135100 0.0 101710
08:00+11nw00310 0.0 101910
11:00+18se32200 0.0 1018779
14:00+22s361135 0.0 10122785
17:00+20wnw109150 0.0 10132259
20:00+13nne33352 0.3 101921